Location: Nitra
(0.0000°N, 18.0833°E)
Time: 20:00:48
(UTC+02:00)

N. Korean satellite - Visible Passes

Search period start: 22 April 2021 00:00
Search period end: 02 May 2021 00:00
Orbit: 452 x 499 km, 97.2° (Epoch: 21 April)

Date Brightness Start Highest point End Pass type
(mag) Time Alt. Az. Time Alt. Az. Time Alt. Az.
22 Apr 8.3 05:25:22 10° NE 05:28:29 32° E 05:31:34 10° SSE visible
23 Apr 9.7 05:00:18 10° E 05:01:31 12° E 05:02:45 10° ESE visible
24 Apr 6.8 06:04:19 10° N 06:07:36 43° W 06:10:51 10° SSW visible
25 Apr 7.1 05:37:16 10° NNE 05:40:37 55° E 05:43:57 10° S visible
26 Apr 9.2 05:11:13 10° NE 05:13:38 18° E 05:16:03 10° SSE visible
27 Apr 7.5 06:16:48 10° NNW 06:19:41 26° W 06:22:35 10° SW visible
28 Apr 6.3 05:49:18 10° N 05:52:42 85° W 05:56:07 10° SSW visible
29 Apr 8.4 05:22:43 10° NE 05:25:43 29° E 05:28:42 10° SSE visible
30 Apr 9.8 04:58:12 10° E 04:58:43 10° E 04:59:15 10° ESE visible
01 May 6.6 06:01:28 10° N 06:04:44 48° W 06:08:02 10° SSW visible
